Regional Weather Roundup
Issued by NWS

Home | Current Version | Previous Version | Graphics & Text | Print | Product List | Glossary On
Versions: 1 2 3 4 5 6 7 8 9 10 11 12 13 14 15 16 17 18 19 20 21 22 23 24 25 26 27 28 29 30 31 32 33 34 35 36 37 38 39 40 41 42 43 44 45 46 47 48 49 50
060
ASUS43 KOAX 290302
RWRNE

WEATHER ROUNDUP FOR NEBRASKA
NATIONAL WEATHER SERVICE OMAHA NE
1000 PM CDT FRI APR 28 2017

NOTES: SATELLITE DATA IS BEING USED TO AUGMENT CLOUD COVER ABOVE
       12000 FEET.
       "FAIR" INDICATES FEW OR NO CLOUDS BELOW 12,000 FEET WITH NO
       SIGNIFICANT WEATHER AND/OR OBSTRUCTIONS TO VISIBILITY.

  * THESE STATIONS DO NOT REPORT WEATHER SUCH AS RAIN...SNOW OR FOG.

NEZ001>004-019>022-054>056-290400-
NEBRASKA PANHANDLE

CITY           SKY/WX    TMP DP  RH WIND       PRES   REMARKS
SCOTTSBLUFF    CLOUDY    34  32  92 N5        30.13R WCI  30
ALLIANCE       CLOUDY    34  32  92 N3        30.09R
CHADRON        CLOUDY    39  29  67 N8        30.13R WCI  33
KIMBALL        MIX PCPN  32  31  98 NE13      30.09R WCI  22
SIDNEY         FRZ RAIN  33  31  92 N10       30.09R FOG     WCI  25
$$

NEZ057>060-069>072-079>082-290400-
SOUTHWEST NEBRASKA

CITY           SKY/WX    TMP DP  RH WIND       PRES   REMARKS
NORTH PLATTE   CLOUDY    38  34  85 NE10      30.07R WCI  31
IMPERIAL       CLOUDY    36  32  85 NE16      30.07R WCI  26
LEXINGTON      CLOUDY    37  34  86 NE13      30.04S WCI  29
MCCOOK         CLOUDY    38  34  85 NE14      30.06R WCI  30
OGALLALA       CLOUDY    37  34  87 N10       30.08R WCI  30
$$

NEZ005>010-023>029-035>040-094-290400-
NORTH CENTRAL NEBRASKA

CITY           SKY/WX    TMP DP  RH WIND       PRES   REMARKS
VALENTINE      CLOUDY    44  26  49 N8        30.08R
AINSWORTH      CLOUDY    42  31  65 NE6       30.08R
BROKEN BOW     CLOUDY    39  34  82 NE8       30.04R WCI  33
O`NEILL        CLOUDY    43  29  58 NE8       30.07R
ORD            CLOUDY    40  34  79 NW3       30.05R
THEDFORD       CLOUDY    40  33  76 CALM      30.09R
$$

NEZ041-046>049-061>064-073>077-083>087-290400-
SOUTH CENTRAL NEBRASKA

CITY           SKY/WX    TMP DP  RH WIND       PRES   REMARKS
GRAND ISLAND   CLOUDY    39  38  96 N9        30.04R WCI  33
AURORA         CLOUDY    39  38  94 NE10      30.03R WCI  32
HASTINGS       CLOUDY    39  37  92 NE14      30.04R FOG     WCI  31
HEBRON         CLOUDY    40  38  92 N12       30.02R WCI  33
HOLDREGE       CLOUDY    38  35  89 NE12      30.05R WCI  30
KEARNEY *      CLOUDY    37  34  87 N10       30.05R WCI  30
YORK           CLOUDY    39  39 100 NE18G24   30.04R WCI  30
$$

NEZ011>018-030>034-042>045-290400-
NORTHEAST NEBRASKA

CITY           SKY/WX    TMP DP  RH WIND       PRES   REMARKS
NORFOLK        CLOUDY    43  33  68 NE12      30.04R
ALBION         CLOUDY    42  34  72 N5        30.06R
BLAIR          CLOUDY    41  39  92 N6        30.03R
FREMONT        CLOUDY    42  40  92 CALM      30.05R
TEKAMAH        CLOUDY    44  38  79 N6        30.05R
WAYNE          CLOUDY    43  35  73 NE8       30.05R
$$

NEZ050>053-065>068-078-088>093-290400-
SOUTHEAST NEBRASKA

CITY           SKY/WX    TMP DP  RH WIND       PRES   REMARKS
LINCOLN        CLOUDY    41  39  93 NE14      30.03R
OMAHA EPPLEY   CLOUDY    43  37  79 N8        30.03R
BEATRICE       CLOUDY    41  40  96 NE10      29.99R FOG
FALLS CITY     CLOUDY    44  41  89 NE8       29.97R
NEBRASKA CITY  CLOUDY    41  41 100 NE13      30.00R
PLATTSMOUTH    CLOUDY    41  38  90 N9        30.01R
$$

NEZ044-045-051>053-067-290400-
OMAHA AREA

CITY           SKY/WX    TMP DP  RH WIND       PRES   REMARKS
OMAHA EPPLEY   CLOUDY    43  37  79 N8        30.03R
BLAIR          CLOUDY    41  39  92 N6        30.03R
FREMONT        CLOUDY    42  40  92 CALM      30.05R
MILLARD        CLOUDY    44  40  88 CALM      30.03R
OFFUTT AFB     CLOUDY    42  38  86 N8        30.02R
PLATTSMOUTH    CLOUDY    41  38  90 N9        30.01R
WAHOO          CLOUDY    41  39  93 N5        30.05R
$$




USA.gov is the U.S. government's official web portal to all federal, state and local government web resources and services.